Preview of NWS' New Version of Forecast
This preview is not operational and should not be used for support decisions.

Regional Weather Roundup (RWR)

Issued by National Weather Service (NWS)

                            
000
ASUS43 KBIS 191210
RWRND 

NORTH DAKOTA REGIONAL WEATHER ROUNDUP
NATIONAL WEATHER SERVICE BISMARCK ND
700 AM CDT FRI APR 19 2019

NOTE: "FAIR" INDICATES FEW OR NO CLOUDS BELOW 12,000 FEET WITH NO
SIGNIFICANT WEATHER AND/OR OBSTRUCTIONS TO VISIBILITY.


NDZ001>003-009>011-017-191300-
NORTHWEST NORTH DAKOTA
  
CITY           SKY/WX    TMP DP  RH WIND       PRES   REMARKS
WILLISTON      CLOUDY    48  27  44 S8        29.84F                  
6HR MIN TEMP:  34; 6HR MAX TEMP:  49;                                

MINOT          CLOUDY    46  28  49 S12       29.88F                  
$$
 
NDZ018>021-031>035-040>046-191300-
SOUTHWEST NORTH DAKOTA
  
CITY           SKY/WX    TMP DP  RH WIND       PRES   REMARKS
BISMARCK       CLEAR     33  31  92 CALM      29.98F                  
6HR MIN TEMP:  31; 6HR MAX TEMP:  37;                                

DICKINSON      CLOUDY    43  28  55 S12       29.90F                  
GARRISON         N/A     34  31  88 S5        29.92F                  
6HR MIN TEMP:  31; 6HR MAX TEMP:  38;                                

HETTINGER ARPT CLOUDY    43  30  60 S7        29.97F                  
$$
 
NDZ004>008-012>016-024-026-027-054-191300-
NORTHEAST NORTH DAKOTA
  
CITY           SKY/WX    TMP DP  RH WIND       PRES   REMARKS
GRAND FORKS    PTCLDY    31  29  92 S3        29.98F                  
DEVILS LAKE    CLEAR     37  33  85 SW9       29.96F                  
$$
 
NDZ022-023-025-028>030-036>039-047>053-191300-
SOUTHEAST NORTH DAKOTA
  
CITY           SKY/WX    TMP DP  RH WIND       PRES   REMARKS
FARGO          CLEAR     32  31  96 S6        30.03R                  
6HR MIN TEMP:  32; 6HR MAX TEMP:  40;                                

JAMESTOWN      CLEAR     39  34  82 SW9       29.99F                  
$$